星链-30484 (STARLINK-30484 )

导读

STARLINK-30484是美国太空探索技术公司(SpaceX)星链(Starlink)星座中的一颗卫星,于2023年9月30日发射升空,归属美国。星链星座旨在构建全球卫星互联网通信系统,为全球多地提供低延迟、高速率的宽带互联网服务,该卫星的入轨进一步扩充了星链星座的服务覆盖与网络容量。

基本信息
目录编号:
57969
目录名称:
STARLINK-30484
国际标识:
2023-151F
轨道中心:
EARTH
卫星名称:
星链-30484
卫星全名:
星链-30484 (STARLINK-30484 )
卫星状态:
已陨落 最后检测时间 2025-09-09
发射日期:
2023-09-30 UTC
国别 :
美国 (US)
星等 :
--
轨道信息
数据来源 国际轨道数据
星历时间: 2025-09-08T23:05:47+0800
轨道信息已过期284天
半长轴: 6556.086km
偏心率: 0.0003109
轨道倾角: 42.986°
近地点辐角 245.590°
升交点赤经 227.423°
平近点角 114.467°
近地点: 175.912km
远地点: 179.99km
周期: 88.049分钟
每日圈数: 16.354447
详细信息
固有亮度:
5
最大亮度:
0.3
卫星平台:
Starlink v2.0 mini
覆盖范围:
全球
运营商:
太空探索技术公司
运营商所在国:
美国
制造商(研发单位):
太空探索技术公司
制造商所在国:
美国
使用方式:
暂无
卫星简介
星链(Starlink)计划是由太空探索技术公司(SpaceX)提出的一个巨型低轨卫星互联网星座项目,计划在2019年至2024年间在太空搭建由约1.2万颗卫星组成的“星链”网络,其中1584颗将部署在地球上空550千米处的近地轨道,并从2020年开始工作。该卫星仍在工作。